Date String (YYYY-MM-DD hh:mm:ss) UTC,Instrument flags,Ambient pressure (hPa),Sample flow (lpm),Bypass flow (lpm),Sample temperature (°C),Ambient temperature (°C),ASC tube jacket temperature (°C),LED temperature (°C),Box temperature (°C),Sample RH (%),Span deviation,Mass concentration (μg/m³),Mass concentration (μg/m³),Mass concentration (μg/m³)
DateTimeUTC,F1_M11,P_M11,Q1_M11,Q2_M11,T1_M11,T2_M11,T3_M11,T4_M11,T5_M11,U1_M11,ZSPAN_M11,X0_M11,X2_M11,X1_M11
2023-02-20 13:00:00,,0814.0,5.00,0.00,22.0,21.1,00.0,30.9,23.8,10.0,0000.0,0005.08,0001.27,0000.65
2023-02-20 13:01:00,,0814.1,4.99,0.00,22.1,22.3,00.0,30.9,24.1,10.0,0000.0,0005.02,0001.25,0000.64
2023-02-20 13:02:00,,0814.2,5.00,0.00,22.3,23.0,00.0,30.9,24.4,09.9,0000.0,0004.47,0001.21,0000.63
2023-02-20 13:03:00,,0814.1,5.02,0.00,22.3,22.7,00.0,31.0,24.4,09.9,0000.0,0003.13,0001.15,0000.63
2023-02-20 13:04:00,,0814.1,4.99,0.00,22.4,22.3,00.0,31.0,24.3,10.2,0000.0,0002.29,0001.15,0000.63
2023-02-20 13:05:00,,0813.8,5.00,0.00,22.4,21.9,00.0,31.1,24.3,10.2,0000.0,0002.19,0001.13,0000.64
2023-02-20 13:06:00,,0814.0,4.99,0.00,22.4,21.5,00.0,31.1,24.2,10.1,0000.0,0002.18,0001.13,0000.64
2023-02-20 13:07:00,,0813.5,5.01,0.00,22.4,21.3,00.0,31.1,24.1,10.1,0000.0,0002.28,0001.17,0000.65
2023-02-20 13:08:00,,0813.2,4.99,0.00,22.3,21.1,00.0,31.1,24.1,10.0,0000.0,0002.99,0001.20,0000.66
2023-02-20 13:09:00,,0813.1,5.00,0.00,22.3,21.0,00.0,31.1,24.0,09.9,0000.0,0002.96,0001.18,0000.66
2023-02-20 13:10:00,,0813.0,5.00,0.00,22.3,20.7,00.0,31.1,24.0,10.1,0000.0,0003.84,0001.21,0000.67
2023-02-20 13:11:00,,0813.4,5.00,0.00,22.3,20.6,00.0,31.1,23.9,10.0,0000.0,0005.71,0001.27,0000.68
2023-02-20 13:12:00,,0814.1,5.00,0.00,22.2,20.5,00.0,31.1,23.9,10.0,0000.0,0005.84,0001.31,0000.69
2023-02-20 13:13:00,,0814.3,5.01,0.00,22.2,20.4,00.0,31.1,23.8,09.9,0000.0,0005.89,0001.35,0000.70
2023-02-20 13:14:00,,0814.0,5.01,0.00,22.1,20.3,00.0,31.1,23.8,09.9,0000.0,0006.04,0001.38,0000.70
2023-02-20 13:15:00,,0813.3,5.00,0.00,22.1,20.3,00.0,31.1,23.8,09.9,0000.0,0006.12,0001.40,0000.70
2023-02-20 13:16:00,,0813.4,5.00,0.00,22.1,20.3,00.0,31.1,23.8,10.0,0000.0,0006.35,0001.44,0000.70
2023-02-20 13:17:00,,0814.1,5.00,0.00,22.1,20.3,00.0,31.1,23.8,10.1,0000.0,0006.35,0001.43,0000.70
2023-02-20 13:18:00,,0814.1,4.98,0.00,22.1,20.2,00.0,31.1,23.7,10.1,0000.0,0006.87,0001.46,0000.69
2023-02-20 13:19:00,,0813.9,4.98,0.00,22.0,20.1,00.0,31.1,23.7,10.7,0000.0,0006.92,0001.45,0000.69
2023-02-20 13:20:00,,0814.3,5.00,0.00,22.0,20.0,00.0,31.0,23.6,10.6,0000.0,0007.02,0001.49,0000.70
2023-02-20 13:21:00,,0814.0,5.00,0.00,21.9,20.0,00.0,31.0,23.5,10.8,0000.0,0007.50,0001.55,0000.72
2023-02-20 13:22:00,,0814.0,5.01,0.00,21.9,20.4,00.0,30.9,23.6,11.0,0000.0,0006.25,0001.58,0000.73
2023-02-20 13:23:00,,0814.3,5.00,0.00,22.0,21.7,00.0,30.9,23.9,10.7,0000.0,0006.26,0001.61,0000.74
2023-02-20 13:24:00,,0814.3,4.99,0.00,22.2,23.0,00.0,30.9,24.2,10.7,0000.0,0006.20,0001.60,0000.74
2023-02-20 13:25:00,,0814.1,5.00,0.00,22.3,22.9,00.0,31.0,24.3,10.5,0000.0,0006.19,0001.60,0000.75
2023-02-20 13:26:00,,0813.9,5.02,0.00,22.3,22.5,00.0,31.0,24.3,10.2,0000.0,0006.15,0001.61,0000.76
2023-02-20 13:27:00,,0814.1,4.99,0.00,22.3,22.1,00.0,31.1,24.3,10.2,0000.0,0006.07,0001.61,0000.76
2023-02-20 13:28:00,,0814.0,4.99,0.00,22.4,21.7,00.0,31.1,24.2,09.8,0000.0,0005.99,0001.60,0000.76
2023-02-20 13:29:00,,0813.9,5.02,0.00,22.3,21.5,00.0,31.1,24.2,09.7,0000.0,0005.69,0001.54,0000.75
2023-02-20 13:30:00,,0814.0,4.99,0.00,22.3,21.3,00.0,31.1,24.1,09.9,0000.0,0004.95,0001.52,0000.73
2023-02-20 13:31:00,,0814.6,4.99,0.00,22.3,21.1,00.0,31.2,24.1,10.5,0000.0,0005.38,0001.56,0000.72
2023-02-20 13:32:00,,0814.8,5.00,0.00,22.3,20.9,00.0,31.2,24.0,10.8,0000.0,0004.77,0001.56,0000.72
2023-02-20 13:33:00,,0814.8,5.00,0.00,22.3,20.8,00.0,31.2,24.0,10.7,0000.0,0004.01,0001.56,0000.72
2023-02-20 13:34:00,,0814.2,5.00,0.00,22.3,20.6,00.0,31.2,24.0,10.6,0000.0,0004.06,0001.58,0000.72
2023-02-20 13:35:00,,0814.1,5.00,0.00,22.2,20.5,00.0,31.2,23.9,10.4,0000.0,0004.20,0001.57,0000.72
2023-02-20 13:36:00,,0814.0,5.01,0.00,22.2,20.4,00.0,31.2,23.9,10.3,0000.0,0004.69,0001.58,0000.73
2023-02-20 13:37:00,,0814.2,5.01,0.00,22.2,20.4,00.0,31.2,23.9,10.1,0000.0,0005.04,0001.64,0000.74
2023-02-20 13:38:00,,0814.2,4.99,0.00,22.2,20.4,00.0,31.1,23.9,10.3,0000.0,0005.35,0001.65,0000.75
2023-02-20 13:39:00,,0814.4,5.01,0.00,22.2,20.3,00.0,31.1,23.8,10.3,0000.0,0007.48,0001.70,0000.76
2023-02-20 13:40:00,,0814.3,4.99,0.00,22.1,20.3,00.0,31.1,23.8,10.2,0000.0,0009.26,0001.86,0000.79
2023-02-20 13:41:00,,0814.4,5.00,0.00,22.1,20.1,00.0,31.1,23.7,10.2,0000.0,0009.76,0001.98,0000.82
2023-02-20 13:42:00,,0814.3,5.01,0.00,22.0,20.1,00.0,31.1,23.7,10.0,0000.0,0009.84,0001.99,0000.83
2023-02-20 13:43:00,,0814.3,5.00,0.00,22.0,20.2,00.0,31.0,23.7,10.1,0000.0,0010.02,0001.94,0000.81
2023-02-20 13:44:00,,0814.3,5.00,0.00,22.1,21.4,00.0,31.0,24.0,10.2,0000.0,0010.54,0001.89,0000.78
2023-02-20 13:45:00,,0814.4,5.01,0.00,22.2,22.7,00.0,31.0,24.3,10.0,0000.0,0010.50,0001.82,0000.77
2023-02-20 13:46:00,,0814.6,5.00,0.00,22.4,23.1,00.0,31.0,24.4,10.0,0000.0,0010.65,0001.82,0000.77
2023-02-20 13:47:00,,0814.6,5.02,0.00,22.4,22.6,00.0,31.1,24.4,10.1,0000.0,0010.84,0001.82,0000.75
2023-02-20 13:48:00,,0814.0,4.99,0.00,22.4,22.2,00.0,31.2,24.3,10.2,0000.0,0011.26,0001.80,0000.74
2023-02-20 13:49:00,,0813.8,4.98,0.00,22.4,21.7,00.0,31.2,24.2,10.4,0000.0,0012.02,0001.77,0000.74
2023-02-20 13:50:00,,0813.9,5.00,0.00,22.4,21.4,00.0,31.2,24.2,10.0,0000.0,0010.90,0001.72,0000.72
2023-02-20 13:51:00,,0814.2,5.01,0.00,22.4,21.2,00.0,31.2,24.2,09.9,0000.0,0009.26,0001.62,0000.70
2023-02-20 13:52:00,,0814.7,5.00,0.00,22.4,21.1,00.0,31.2,24.1,09.9,0000.0,0008.78,0001.51,0000.68
2023-02-20 13:53:00,,0814.6,5.00,0.00,22.4,20.9,00.0,31.2,24.1,09.9,0000.0,0008.52,0001.45,0000.68
2023-02-20 13:54:00,,0815.2,5.02,0.00,22.3,20.8,00.0,31.2,24.0,10.1,0000.0,0008.41,0001.40,0000.67
2023-02-20 13:55:00,,0815.8,4.99,0.00,22.3,20.8,00.0,31.2,24.0,10.1,0000.0,0007.85,0001.40,0000.69
2023-02-20 13:56:00,,0815.5,4.98,0.00,22.3,20.7,00.0,31.2,24.0,10.2,0000.0,0008.11,0001.46,0000.70
2023-02-20 13:57:00,,0814.3,5.00,0.00,22.3,20.6,00.0,31.2,23.9,10.5,0000.0,0008.18,0001.49,0000.71
2023-02-20 13:58:00,,0814.1,5.01,0.00,22.2,20.4,00.0,31.2,23.9,10.1,0000.0,0007.77,0001.45,0000.71
2023-02-20 13:59:00,,0814.5,5.01,0.00,22.2,20.4,00.0,31.2,23.8,10.0,0000.0,0007.24,0001.42,0000.71
